Location: Douriez
(50.3320°N, 1.8773°E)
Time: 08:35:22
(UTC+00:00)

Daily predictions for brighter satellites

Satellite Brightness Start Highest point End
(mag) Time Altitude Azimuth Time Altitude Azimuth Time Altitude Azimuth
Cosmos 1892 Rocket 3.6 16:20:18 10° N 16:24:44 65° ENE 16:29:09 10° SSE
Thor Agena Rocket 3.8 16:21:42 10° SE 16:26:44 50° ENE 16:31:43 10° N
Cosmos 1356 Rocket 4.1 16:27:34 10° SSE 16:31:10 33° E 16:34:50 10° NNE
ARIANE 6 FM1 Upper Stage 2.6 16:27:27 10° NW 16:31:27 88° SW 16:35:27 10° SE
Cosmos 158 Rocket 4.0 16:27:04 10° NNW 16:32:11 84° WSW 16:37:08 10° SSE
Cosmos 1092 Rocket 4.0 16:26:21 10° N 16:32:30 65° ENE 16:38:35 10° SSE
Cosmos 292 Rocket 3.8 16:29:01 10° S 16:33:45 64° ESE 16:38:31 10° NNE
CZ-4C R/B 3.3 16:28:37 10° NW 16:34:24 37° NNE 16:41:37 10° E
Iridium 45 4.3 16:31:20 10° S 16:34:26 58° E 16:37:35 10° N
Cosmos 968 Rocket 4.2 16:29:47 10° SW 16:34:53 56° WNW 16:40:04 10° NNE
BlueWalker 3 1.8 16:32:36 10° WNW 16:36:12 62° NNE 16:39:49 10° E
Cosmos 1315 Rocket 3.3 16:32:57 10° SSE 16:36:29 37° E 16:40:03 10° NNE
Cosmos 332 Rocket 4.3 16:35:52 10° SW 16:40:39 62° WNW 16:45:26 10° NNE
Cosmos 2263 Rocket 3.8 16:37:49 10° N 16:40:58 15° NNE 16:44:07 10° ENE
Cosmos 1741 Rocket 4.4 16:36:16 10° SW 16:41:32 66° WNW 16:46:51 10° NNE
Cosmos 1484 Rocket 2.5 16:38:14 10° SSE 16:41:46 87° WSW 16:45:18 10° NNW
NOSS 3-2 (A) 4.1 16:38:06 10° S 16:42:18 28° ESE 16:47:02 10° ENE
Cosmos 2034 Rocket 4.1 16:37:23 10° S 16:43:42 90° E 16:50:06 10° N
SJ-12 4.4 16:43:26 10° SE 16:46:50 33° ENE 16:50:15 10° N
Cosmos 2227 Rocket 3.4 16:42:40 10° NNW 16:46:53 21° NE 16:51:06 10° E
SAR-Lupe-4 4.1 16:43:51 10° SE 16:47:06 34° ENE 16:50:22 10° N
Intercosmos 24 4.2 16:45:10 10° N 16:49:24 44° ENE 16:52:52 10° SSE
USA 290 3.8 16:51:04 10° N 16:53:17 17° NE 16:54:36 14° E
Cosmos 2369 Rocket 3.0 16:47:49 10° SW 16:53:18 51° NW 16:58:50 10° NNE
BREEZE M DEB (TANK) 4.2 16:36:47 10° W 16:54:24 77° SSW 16:58:43 10° ESE
CORIOLIS 4.1 16:51:11 10° SSE 16:56:29 73° ENE 17:01:49 10° NNW
SL-16 R/B 2.6 16:50:18 10° NNE 16:56:36 89° E 17:02:49 10° SSW
Cosmos 44 4.2 16:52:29 10° NW 16:57:37 58° WSW 17:02:52 10° SSE
Cosmos 2151 3.8 16:55:13 10° NNE 16:58:45 26° ENE 17:02:16 10° SE
CZ-2D R/B 3.1 16:55:54 10° SE 16:58:50 39° ENE 17:01:49 10° N
Cosmos 1867 4.5 16:54:31 10° NNW 16:59:19 30° NNE 17:03:27 13° E
Cosmos 2278 Rocket 4.4 16:57:07 10° WNW 17:00:09 14° NNW 17:03:10 10° N
Cosmos 1602 Rocket 4.3 16:56:45 10° N 17:00:40 30° ENE 17:04:32 10° SE
Cosmos 1455 Rocket 3.3 16:56:52 10° SSW 17:01:10 73° WNW 17:05:32 10° N
Meteor 1-28 Rocket 2.9 16:58:38 10° NNE 17:02:01 88° WNW 17:05:22 10° SSW
Lacrosse 5 rocket 1.3 17:00:32 10° SW 17:04:11 54° SE 17:06:43 18° ENE
Cosmos 1782 3.3 17:01:23 10° SSE 17:04:36 32° E 17:07:26 12° NNE
Cosmos 1743 3.0 17:04:22 10° N 17:07:17 30° ENE 17:10:12 10° SE
Cosmos 1570 Rocket 4.0 17:02:28 10° NNW 17:07:49 69° ENE 17:13:07 10° SSE
Cosmos 2266 Rocket 4.3 17:03:06 10° N 17:08:58 41° ENE 17:14:41 10° SE
Cosmos 1943 Rocket 4.4 17:07:32 10° NW 17:09:47 12° NNW 17:12:03 10° N
Cosmos 1697 Rocket 4.3 17:07:58 10° SE 17:10:42 14° E 17:11:01 14° E
NOSS 2-2 (C) 3.0 17:09:30 10° SSW 17:12:41 50° SE 17:14:14 24° ENE
COSMO-SKYMED 1 4.0 17:19:06 17° ESE 17:19:06 17° ESE 17:21:17 10° SE
YAOGAN 1 3.4 17:15:10 10° ESE 17:18:44 27° ENE 17:22:19 10° N
SMAP 3.2 17:14:50 10° S 17:19:29 78° WSW 17:24:11 10° NNW
Cosmos 836 Rocket 4.4 17:15:54 10° NNW 17:21:10 78° ENE 17:26:25 10° SSE
PSLV R/B 4.4 17:21:32 19° E 17:23:12 25° ENE 17:26:31 10° N
Cosmos 1607 4.0 17:17:21 10° NW 17:23:29 57° NE 17:29:39 10° ESE
BREEZE-M DEB (TANK) 3.2 17:21:53 10° W 17:24:47 82° S 17:30:10 18° E
GEOS 3 Rocket 4.0 17:20:08 13° NE 17:24:52 64° NW 17:30:10 10° WSW
ERS-1 4.4 17:20:06 10° SSE 17:25:09 79° ENE 17:30:09 10° NNW
Lacrosse 4 Rocket 1.7 17:22:05 10° SW 17:26:08 62° NW 17:29:10 17° NNE
Landsat 7 3.8 17:21:40 10° SSE 17:26:19 87° WSW 17:31:01 10° NNW
ATLAS CENTAUR R/B 0.9 17:23:59 10° NNW 17:27:11 46° NE 17:28:21 30° E
NOSS 3-3 (A) 4.5 17:22:47 10° NW 17:29:57 74° NE 17:38:31 10° SE
Cosmos 724 4.3 17:26:57 10° NW 17:33:00 63° NE 17:38:54 10° SE
Cosmos 1825 Rocket 4.1 17:31:39 10° N 17:35:38 33° ENE 17:39:35 10° SE
Cosmos 1758 Rocket 3.5 17:31:33 10° NNW 17:35:55 84° W 17:40:12 10° S
AQUARIUS 4.1 17:31:45 10° SSE 17:36:10 90° W 17:40:36 10° NNW
IRS-1C 4.3 17:30:55 10° S 17:36:14 74° WSW 17:41:35 10° NNW
SPOT 1/Viking Rocket 3.6 17:31:17 10° SSE 17:36:23 58° ENE 17:41:30 10° N
MOS 1 Rocket 3.3 17:33:01 10° SSE 17:37:47 84° ENE 17:42:53 10° NNW
CZ-4 R/B 4.3 17:35:09 10° SSE 17:39:01 58° ENE 17:42:55 10° N
Cosmos 2208 Rocket 3.9 17:33:58 10° NNW 17:39:10 88° ENE 17:44:21 10° SSE
Cosmos 2098 Rocket 2.7 17:36:10 10° S 17:39:54 71° E 17:44:22 10° NNE
Cosmos 2084 3.9 17:35:47 10° WSW 17:39:54 55° NW 17:42:11 24° NNE
Cosmos 2084 Rocket 3.9 17:36:11 10° NW 17:40:10 40° NE 17:41:10 34° ENE
ARIANE 5 R/B 2.9 17:35:21 10° S 17:40:21 67° WSW 17:45:28 10° NNW
CZ-2D R/B 3.6 17:36:38 10° SE 17:40:43 50° ENE 17:44:47 10° N
Cosmos 2297 Rocket 2.1 17:35:28 10° NNW 17:41:10 73° ENE 17:46:49 10° SE
Cosmos 773 Rocket 4.0 17:37:34 10° NNW 17:42:47 88° WSW 17:48:01 10° SSE
CENTAUR R/B 2.8 17:37:58 10° WSW 17:43:44 65° NW 17:49:09 19° NE
UNK 4.2 17:39:20 10° N 17:43:53 62° WNW 17:48:23 10° SSW
SJ-7 4.3 17:49:28 46° ENE 17:49:28 46° ENE 17:53:05 10° N
Cosmos 1655 Rocket 4.2 17:43:35 10° N 17:49:34 45° ENE 17:55:30 10° SE
USA 215 3.4 17:45:59 26° E 17:49:42 57° NNE 17:56:06 10° WNW
Meteor 1-5 Rocket 4.4 17:46:04 10° N 17:51:06 41° ENE 17:56:10 10° SE
Cosmos 2219 4.3 17:46:47 10° NNW 17:51:24 24° NE 17:51:24 24° NE
Cosmos 405 Rocket 4.1 17:50:19 10° NNW 17:53:19 33° W 17:56:15 10° SSW
Cosmos 1656 3.6 17:49:46 10° SSW 17:55:21 77° ESE 17:58:48 25° NE
Cosmos 2228 4.3 17:51:46 10° SW 17:55:44 39° WNW 17:59:45 10° N
Cosmos 1241 Rocket 4.4 17:53:34 10° SSW 17:59:57 78° SE 18:03:23 29° NE
USA 281 4.3 18:06:13 24° NE 18:06:13 24° NE 18:11:11 10° NNW
Okean 1-7 Rocket 3.5 18:03:39 10° N 18:08:06 89° SW 18:12:29 10° S
NOSS 2-2 (D) 3.0 18:06:24 10° SW 18:09:17 65° WSW 18:09:17 65° WSW
Cosmos 1606 Rocket 3.5 18:06:27 10° S 18:10:46 60° E 18:10:49 60° E
NOAA 15 4.5 18:05:50 10° SSE 18:11:07 86° ENE 18:16:28 10° NNW
Cosmos 1461 4.5 18:08:32 10° S 18:10:11 20° SSE 18:10:11 20° SSE
NOSS 2-2 (E) 3.3 18:10:09 10° SW 18:12:46 52° SW 18:12:46 52° SW
BlueWalker 3 2.6 18:10:13 10° WNW 18:13:42 46° SSW 18:14:18 41° S
Cosmos 783 Rocket 4.4 18:08:36 10° NNW 18:13:56 82° ENE 18:19:00 11° SSE
Resurs 1-3 3.4 18:11:21 10° SSE 18:15:39 86° ENE 18:19:58 10° NNW
Cosmos 2360 4.1 18:16:07 10° SSW 18:21:50 88° ESE 18:24:05 39° NNE
CZ-4C R/B 2.9 18:16:39 10° NW 18:23:28 89° NE 18:29:51 19° SE
Meteor 2-20 4.5 18:17:40 10° SSE 18:23:39 54° E 18:25:00 46° NE
SKYMED 2 3.7 18:23:50 41° N 18:25:18 75° WNW 18:29:38 10° SSW
Cosmos 2263 Rocket 2.5 18:20:53 10° NNW 18:25:49 46° NE 18:25:49 46° NE
USA 290 3.6 18:24:43 10° NW 18:27:24 39° W 18:27:24 39° W
NOSS 3-2 (C) 3.1 18:24:03 10° SSW 18:29:02 63° SE 18:29:22 61° ESE
Cosmos 1503 Rocket 3.8 18:23:59 10° SSW 18:29:15 83° ESE 18:30:10 61° NE
Cosmos 1933 3.9 18:25:48 10° SSW 18:28:34 46° SSW 18:28:34 46° SSW
Cosmos 2227 Rocket 2.0 18:26:11 10° NNW 18:31:52 79° ENE 18:33:08 55° SE
NOSS 3-2 (A) 3.5 18:27:20 10° WSW 18:32:28 64° NW 18:34:23 41° NNE
IRAS Rocket 4.3 18:27:12 10° SSE 18:32:42 76° WSW 18:38:13 10° NNW
Resurs 01 Rocket 4.0 18:38:00 12° N 18:38:00 12° N 18:38:24 10° N
Cosmos 1354 Rocket 4.0 18:29:31 10° S 18:34:18 63° SE 18:34:18 63° SE
Spot 4 Rocket 4.5 18:31:33 10° S 18:36:35 61° WSW 18:41:40 10° NNW
Cosmos 2369 Rocket 4.5 18:35:23 10° WNW 18:38:43 16° NNW 18:41:55 10° N
Cosmos 1726 Rocket 4.2 18:34:07 10° S 18:37:32 50° S 18:37:32 50° S
Lacrosse 5 rocket 2.6 18:37:47 10° W 18:40:19 32° WNW 18:40:19 32° WNW
Cosmos 1867 3.5 18:37:59 10° NW 18:43:28 82° SW 18:44:08 69° SSE
Cosmos 1697 Rocket 2.8 18:48:05 10° SSW 18:52:47 62° S 18:52:47 62° S
COSMO-SKYMED 1 3.7 18:55:26 37° SW 18:55:26 37° SW 18:58:10 10° SSW
Cosmos 1777 Rocket 4.5 18:49:07 10° SW 18:54:18 57° WNW 18:55:17 49° NNW
YAOGAN 1 3.9 18:50:29 10° SSW 18:54:27 38° W 18:58:27 10° NNW
ATLAS CENTAUR R/B 3.8 18:59:30 10° WNW 19:00:41 15° W 19:00:41 15° W
Lacrosse 4 Rocket 3.9 19:02:33 10° WNW 19:04:41 14° NNW 19:04:41 14° NNW
Cosmos 2297 Rocket 4.4 19:20:24 10° NW 19:24:37 22° W 19:28:49 10° SSW
USA 215 3.4 19:33:20 70° W 19:33:20 70° W 19:39:11 10° WNW
CENTAUR R/B 3.9 19:29:56 10° WNW 19:35:46 32° NNW 19:36:15 32° N
BREEZE-M DEB (TANK) 4.4 19:36:44 10° W 19:41:21 57° SSW 19:41:24 57° SSW
USA 281 4.4 19:53:06 32° NNW 19:53:06 32° NNW 19:56:24 10° NNW
Cosmos 2263 Rocket 4.2 20:05:01 10° NW 20:07:31 24° WNW 20:07:31 24° WNW
Cosmos 2227 Rocket 4.4 20:11:17 10° NW 20:15:00 20° W 20:15:00 20° W
